Houston Hull, TX

9:38 AM CST on November 23, 2017 (GMT -0600)
Sugar Land Municipal-Hull

Weather History for KSGR - May, 2014

Change the Weather History Date:

Sunday, May 25, 2014

  Actual Average Record
Temperature  
Mean Temperature 80 °F -  
Max Temperature 89 °F 88 °F 94 °F (1955)
Min Temperature 71 °F 68 °F 59 °F (1979)
Cooling Degree Days 14    
Growing Degree Days 30 (Base 50)    
Moisture  
Dew Point 68 °F    
Average Humidity 74    
Maximum Humidity 94    
Minimum Humidity 46    
Precipitation  
Precipitation 0.00 in - - ()
Sea Level Pressure  
Sea Level Pressure 30.01 in    
Wind  
Wind Speed 8 mph (SSE)    
Max Wind Speed 16 mph    
Max Gust Speed 21 mph    
Visibility 10 miles    
Events      
Averages and records for this station are not official NWS values.
T = Trace of Precipitation, MM = Missing Value Source: NWS Daily Summary

Daily Weather History Graph

Daily Weather History Graph

Search for Another Location

Airport or City:

Trip Planner

Search our weather history database for the weather conditions in past years. The results will help you decide how hot, cold, wet, or windy it might be!

Date:

Astronomy

May. 25, 2014 Rise Set
Actual Time 6:24 AM CDT 8:14 PM CDT
Civil Twilight 5:58 AM CDT 8:41 PM CDT
Nautical Twilight 5:26 AM CDT 9:13 PM CDT
Astronomical Twilight 4:52 AM CDT 9:47 PM CDT
Moon 4:15 AM CDT (5/25) 5:28 PM CDT (5/25)
Length of Visible Light 14h 42m
Length of Day
13h 49m
Waning Crescent, 10% of the Moon is Illuminated
May 25
Waning Crescent
May 28
New
Jun 5
First Quarter
Jun 12
Full
Jun 19
Last Quarter

Hourly Weather History & Observations

Time (CDT) Temp. Heat Index Dew Point Humidity Pressure Visibility Wind Dir Wind Speed Gust Speed Precip Events Conditions
1:53 AM 73.0 °F - 70.0 °F 90% 30.01 in 10.0 mi SSE 9.2 mph - N/A   Clear
2:53 AM 72.0 °F - 70.0 °F 93% 30.01 in 10.0 mi South 5.8 mph - N/A   Partly Cloudy
3:07 AM 72.0 °F - 70.0 °F 93% 30.00 in 9.0 mi Calm Calm - N/A   Mostly Cloudy
3:20 AM 73.0 °F - 69.1 °F 87% 29.98 in 10.0 mi ESE 5.8 mph - N/A   Scattered Clouds
3:53 AM 73.0 °F - 70.0 °F 90% 29.99 in 10.0 mi SE 6.9 mph - N/A   Clear
4:53 AM 73.0 °F - 70.0 °F 90% 29.99 in 10.0 mi SE 6.9 mph - N/A   Mostly Cloudy
5:18 AM 72.0 °F - 69.1 °F 91% 29.99 in 10.0 mi SSE 6.9 mph - N/A   Scattered Clouds
5:50 AM 71.6 °F - 69.8 °F 94% 29.99 in 9.0 mi SSE 5.8 mph - N/A   Mostly Cloudy
5:53 AM 72.0 °F - 69.1 °F 91% 30.00 in 9.0 mi SSE 5.8 mph - N/A   Scattered Clouds
6:53 AM 72.0 °F - 69.1 °F 91% 30.01 in 10.0 mi SE 5.8 mph - N/A   Clear
7:53 AM 73.9 °F - 70.0 °F 87% 30.03 in 10.0 mi SSE 9.2 mph - N/A   Clear
8:53 AM 77.0 °F - 70.0 °F 79% 30.04 in 10.0 mi SSE 11.5 mph - N/A   Clear
10:00 AM 81.0 °F 84.1 °F 69.1 °F 67% 30.05 in 10.0 mi SSE 11.5 mph - N/A   Mostly Cloudy
10:17 AM 80.1 °F 82.7 °F 68.0 °F 67% 30.05 in 10.0 mi South 9.2 mph - N/A   Mostly Cloudy
10:53 AM 82.9 °F 85.4 °F 66.9 °F 58% 30.05 in 10.0 mi SE 10.4 mph - N/A   Scattered Clouds
11:53 AM 84.0 °F 86.3 °F 66.0 °F 55% 30.06 in 10.0 mi South 9.2 mph - N/A   Mostly Cloudy
12:53 PM 86.0 °F 88.2 °F 66.0 °F 51% 30.05 in 10.0 mi South 9.2 mph - N/A   Mostly Cloudy
1:53 PM 86.0 °F 87.6 °F 64.9 °F 49% 30.02 in 10.0 mi ESE 5.8 mph - N/A   Partly Cloudy
2:53 PM 87.1 °F 88.3 °F 64.0 °F 46% 30.00 in 10.0 mi SE 9.2 mph 17.3 mph N/A   Mostly Cloudy
3:53 PM 88.0 °F 91.4 °F 68.0 °F 51% 29.97 in 10.0 mi SSE 13.8 mph 20.7 mph N/A   Scattered Clouds
4:53 PM 84.9 °F 87.6 °F 66.9 °F 55% 29.97 in 10.0 mi SE 12.7 mph - N/A   Scattered Clouds
5:53 PM 84.0 °F 86.3 °F 66.0 °F 55% 29.96 in 10.0 mi SE 16.1 mph - N/A   Clear
6:53 PM 82.0 °F 84.1 °F 66.0 °F 58% 29.97 in 10.0 mi SSE 16.1 mph - N/A   Clear
7:53 PM 79.0 °F - 66.9 °F 66% 29.98 in 10.0 mi SSE 15.0 mph - N/A   Clear
8:53 PM 77.0 °F - 68.0 °F 74% 30.00 in 10.0 mi SE 10.4 mph - N/A   Clear
9:53 PM 75.9 °F - 68.0 °F 76% 30.02 in 10.0 mi SE 8.1 mph - N/A   Clear
10:53 PM 75.9 °F - 69.1 °F 79% 30.04 in 10.0 mi SE 5.8 mph - N/A   Clear
11:53 PM 75.0 °F - 69.1 °F 82% 30.05 in 10.0 mi SE 8.1 mph - N/A   Clear